User: anonymous   Login
Location: Unspecified
(43.4680°N, 87.1740°E)
Time: 12:44:53
(UTC+00:00)
Language:

Meteor 2-4 Rocket - Orbit

View from above orbital plane
View from above orbital plane
View from above satellite
View from above satellite

Ground track
Ground track

The orbit data is extracted from the following two-line orbital elements,

1 11289U 79021B   21173.47640494  .00000070  00000-0  30812-4 0  9997
2 11289  81.2451 173.5744 0076134  33.4828 327.1123 14.11619564177444
Epoch (UTC): 22 June 2021 11:26:01
Eccentricity: 0.0076134
inclination: 81.2451°
perigee height: 799 km
apogee height: 909 km
right ascension of ascending node: 173.5744°
argument of perigee: 33.4828°
revolutions per day: 14.11619564
mean anomaly at epoch: 327.1123°
orbit number at epoch: 17744

The dashed part of the orbit path shows where the satellite is in the earth's shadow,  

DLR